Lid_Strength_Index
8 11 12 11 10 10 11 12 13 12 10 11 12 12 11 10 10 10 10 9 9 8 7 6 6 6 6 4 3 2 2 2 2 2 2 3 3 3 4 2 1 1 1 2
10 12 9 8 9 10 12 13 13 11 10 12 12 12 10 10 10 9 9 9 8 8 8 7 6 6 6 6 3 3 2 2 2 1 2 2 3 3 3 4 3 2 1 1
11 10 8 9 11 11 12 13 13 13 12 12 13 14 12 10 9 9 8 8 8 8 8 7 7 6 7 6 5 3 3 2 2 2 3 4 5 5 5 4 4 5 4 2
10 8 10 11 11 11 13 11 11 12 14 17 13 19 14 11 11 10 9 9 9 8 7 7 7 7 7 7 6 5 4 3 3 3 4 4 4 5 6 5 6 7 6 5
12 11 11 12 11 10 12 10 11 12 14 15 15 17 15 12 12 11 10 9 9 8 8 8 8 7 7 6 6 6 6 5 5 4 5 5 6 6 6 7 7 8 7 6
11 9 10 10 10 10 9 11 12 13 14 18 15 16 16 14 12 11 10 9 9 8 8 8 8 8 8 7 7 7 7 7 6 5 5 6 6 7 7 7 6 7 8 8
11 11 10 9 12 10 11 13 17 18 19 19 15 16 15 11 11 11 9 9 8 8 8 9 9 9 9 9 8 7 7 7 7 6 6 6 6 7 7 7 7 9 9 10
14 16 11 10 10 12 12 12 16 21 20 18 16 18 14 10 10 9 8 9 8 8 8 8 8 9 9 8 8 8 8 8 7 7 6 6 6 7 7 6 7 8 8 8
13 13 10 10 10 9 12 14 11 15 19 20 17 14 12 10 10 9 9 9 9 8 8 8 8 9 9 9 9 8 8 8 8 7 7 7 7 7 7 7 7 7 8 8
11 14 11 11 10 10 11 10 15 15 21 22 18 17 15 12 10 9 9 9 8 8 8 9 9 9 9 9 9 8 8 8 8 7 7 7 7 7 7 7 7 8 8 9
11 12 14 12 13 13 12 13 12 12 15 19 20 17 11 10 10 10 9 9 9 9 8 9 10 9 9 9 9 9 8 8 8 8 8 8 8 8 8 8 8 9 10 12
10 11 16 14 12 11 11 12 12 15 17 15 16 15 10 9 9 10 10 9 9 9 9 9 10 10 10 10 10 9 9 9 8 8 8 8 8 8 8 9 9 11 12 13
10 14 18 16 13 12 13 12 11 12 14 16 19 16 11 9 9 10 10 10 9 10 10 10 10 10 10 10 10 9 9 9 8 8 9 9 9 9 10 10 11 12 14 15
9 14 15 17 16 13 14 14 12 13 16 16 15 13 10 10 10 9 9 9 10 10 9 9 9 9 9 9 9 10 9 9 9 9 9 10 10 10 10 11 12 14 15 16
11 15 15 14 14 15 15 15 14 14 13 16 14 13 11 10 10 9 9 8 8 9 9 9 9 9 9 9 10 10 10 10 9 9 10 9 10 10 11 12 14 15 15 16
10 15 15 15 13 13 15 14 14 13 13 13 13 13 10 9 9 9 8 8 8 8 7 7 8 9 9 9 9 9 10 10 10 9 10 10 11 12 13 14 15 15 16 16
12 14 15 18 14 14 17 16 14 13 12 12 14 11 10 10 10 9 9 9 9 8 8 8 8 8 9 9 9 10 10 10 11 12 12 12 13 13 14 14 15 16 16 16
13 14 15 21 17 21 16 12 12 12 11 10 10 10 12 12 11 9 11 11 10 10 9 8 9 9 8 8 9 9 11 12 13 13 14 14 14 14 14 15 15 16 17 17
10 13 16 19 22 17 15 14 12 12 13 12 13 13 12 12 12 10 10 11 10 10 9 10 10 10 11 11 11 13 13 13 13 14 14 14 14 15 15 16 16 17 16 16
10 10 13 16 20 23 18 15 10 10 16 15 12 12 13 13 16 14 11 10 10 10 10 11 11 11 13 13 14 15 14 14 14 14 14 14 15 15 16 16 17 18 15 16
13 13 15 15 16 15 14 12 8 15 15 13 12 12 12 13 12 11 10 10 10 11 11 11 12 13 13 14 14 15 15 15 14 15 16 16 16 17 17 17 18 18 16 16
14 15 15 15 17 18 11 11 12 11 10 10 10 11 11 10 9 10 10 11 11 11 11 12 13 14 14 15 15 15 15 15 16 17 17 18 19 17 17 18 19 18 17 16
17 14 15 13 13 10 10 10 9 8 10 10 10 10 10 10 10 9 9 10 10 11 12 13 13 13 13 14 15 16 15 15 16 18 18 18 18 17 17 17 17 18 19 19
13 11 14 13 12 12 10 9 8 8 9 9 9 9 9 9 9 10 10 9 10 11 11 13 14 13 13 14 14 16 16 16 19 19 18 17 16 18 17 16 16 16 17 16
14 13 14 14 12 11 10 9 8 8 8 9 9 9 9 9 10 10 11 11 10 12 13 14 14 13 14 15 15 15 16 15 16 17 17 16 16 16 16 16 16 16 16 14
13 13 14 15 11 11 11 10 9 9 9 8 9 10 9 9 9 10 11 11 11 12 14 14 14 16 17 18 17 19 16 16 16 16 16 15 13 14 15 15 15 12 12 12